Regional Weather Roundup
Issued by NWS

Home | Current Version | Previous Version | Graphics & Text | Print | Product List | Glossary On
Versions: 1 2 3 4 5 6 7 8 9 10 11 12 13 14 15 16 17 18 19 20 21 22 23 24 25 26 27 28 29 30 31 32 33 34 35 36 37 38 39 40 41 42 43 44 45 46 47 48 49 50
000
ASUS43 KOAX 140810
RWRNE

WEATHER ROUNDUP FOR NEBRASKA
NATIONAL WEATHER SERVICE OMAHA NE
200 AM CST SUN FEB 14 2016

NOTES: SATELLITE DATA IS BEING USED TO AUGMENT CLOUD COVER ABOVE
       12000 FEET.
       "FAIR" INDICATES FEW OR NO CLOUDS BELOW 12,000 FEET WITH NO
       SIGNIFICANT WEATHER AND/OR OBSTRUCTIONS TO VISIBILITY.

  * THESE STATIONS DO NOT REPORT WEATHER SUCH AS RAIN...SNOW OR FOG.

NEZ001>004-019>022-054>056-140900-
NEBRASKA PANHANDLE

CITY           SKY/WX    TMP DP  RH WIND       PRES   REMARKS
SCOTTSBLUFF    CLEAR     33  25  72 NW10      30.03S WCI  25
ALLIANCE       CLEAR     35  26  69 W21G26    29.98S WCI  24
CHADRON        CLEAR     34  26  72 W17       29.98S WCI  23
KIMBALL        CLEAR     32  25  74 NW12      30.02F WCI  23
SIDNEY         CLEAR     32  25  75 NW12      30.02F WCI  23
$$

NEZ057>060-069>072-079>082-140900-
SOUTHWEST NEBRASKA

CITY           SKY/WX    TMP DP  RH WIND       PRES   REMARKS
NORTH PLATTE   CLEAR     32  29  88 W10       29.95F WCI  24
IMPERIAL       CLEAR     35  27  72 NW15      30.00F WCI  25
LEXINGTON      CLEAR     28  22  78 W9        29.97S WCI  20
MCCOOK         CLEAR     30  26  85 W17       30.00F WCI  18
OGALLALA       CLEAR     35  28  75 W16       30.00R WCI  25
$$

NEZ005>010-023>029-035>040-094-140900-
NORTH CENTRAL NEBRASKA

CITY           SKY/WX    TMP DP  RH WIND       PRES   REMARKS
VALENTINE      CLOUDY    37  33  85 W13       29.84S WCI  29
AINSWORTH      RAIN      37  34  92 W16       29.84R WCI  27
BROKEN BOW     LGT RAIN  33  31  92 SW8       29.89F WCI  26
O`NEILL        LGT SNOW  23  21  91 S10       29.83F WCI  12
ORD            LGT SNOW  24  19  81 SW10G20   29.89F WCI  14
THEDFORD       MOCLDY    37  33  85 W15G21    29.90S WCI  28
$$

NEZ041-046>049-061>064-073>077-083>087-140900-
SOUTH CENTRAL NEBRASKA

CITY           SKY/WX    TMP DP  RH WIND       PRES   REMARKS
GRAND ISLAND   CLOUDY    19   9  65 S23G30    29.99F WCI   2
AURORA         CLOUDY    19  10  67 S20       29.99F WCI   4
HASTINGS       CLOUDY    19   9  65 S12G21    30.00F WCI   7
HEBRON         CLOUDY    19  10  68 S3        30.05F
HOLDREGE       PTCLDY    23  14  69 SW9       29.98F WCI  13
KEARNEY *      MOCLDY    21  12  68 S13       29.97F WCI   9
YORK           CLOUDY    19  10  68 S15       30.03R WCI   5
$$

NEZ011>018-030>034-042>045-140900-
NORTHEAST NEBRASKA

CITY           SKY/WX    TMP DP  RH WIND       PRES   REMARKS
NORFOLK        CLOUDY    18   8  65 S16       29.96F WCI   3
ALBION         CLOUDY    19  11  69 S14       29.94F WCI   6
BLAIR          CLOUDY    19   6  56 SE15      30.05F WCI   5
COLUMBUS *     CLOUDY    18   1  49 SE15      30.00F WCI   3
FREMONT        CLOUDY    19   6  57 SE15      30.04F WCI   4
TEKAMAH        CLOUDY    18   8  65 SE18      30.06F WCI   2
WAYNE          LGT SNOW  17   9  72 S20G25    29.98F WCI   0
$$

NEZ050>053-065>068-078-088>093-140900-
SOUTHEAST NEBRASKA

CITY           SKY/WX    TMP DP  RH WIND       PRES   REMARKS
LINCOLN        CLOUDY    19   7  59 S14       30.08F WCI   6
OMAHA EPPLEY   CLOUDY    20   5  52 SE21      30.10F WCI   4
BEATRICE       CLOUDY    19   7  58 SE8       30.07S WCI   9
FALLS CITY     CLOUDY    22   5  48 SE9       30.11F WCI  12
NEBRASKA CITY  PTCLDY    19   3  48 SE12      30.09F WCI   7
PLATTSMOUTH    CLOUDY    19   4  51 SE17      30.07F WCI   4
$$

NEZ044-045-051>053-067-140900-
OMAHA AREA

CITY           SKY/WX    TMP DP  RH WIND       PRES   REMARKS
OMAHA EPPLEY   CLOUDY    20   5  52 SE21      30.10F WCI   4
BLAIR          CLOUDY    19   6  56 SE15      30.05F WCI   5
FREMONT        CLOUDY    19   6  57 SE15      30.04F WCI   4
MILLARD        CLOUDY    20   6  54 SE14      30.09F WCI   7
OFFUTT AFB     CLOUDY    20   4  50 SE15      30.09F WCI   6
PLATTSMOUTH    CLOUDY    19   4  51 SE17      30.07F WCI   4
WAHOO          CLOUDY    19   8  64 SE15      30.05F WCI   4
$$



USA.gov is the U.S. government's official web portal to all federal, state and local government web resources and services.